Location: Bonn
(50.7330°N, 7.1000°E)
Time: 13:33:20
(UTC+01:00)

Cosmos 1933 Rocket - Visible Passes

Search period start: 01 November 2014 00:00
Search period end: 11 November 2014 00:00
Orbit: 607 x 633 km, 82.5° (Epoch: 30 October)

Date Brightness Start Highest point End Pass type
(mag) Time Alt. Az. Time Alt. Az. Time Alt. Az.
01 Nov 6.2 03:51:24 14° NNE 03:51:24 14° NNE 03:52:07 10° NNE visible
01 Nov 5.6 05:28:36 13° NNW 05:28:36 13° NNW 05:29:23 10° NNW visible
02 Nov 6.2 04:09:27 13° N 04:09:27 13° N 04:09:54 10° N visible
03 Nov 6.2 04:27:25 11° N 04:27:25 11° N 04:27:31 10° N visible
